User: anonymous   Login
Location: Pine Mountain Observatory
(43.7910°N, 120.9377°W)
Time: 09:46:15
(UTC-07:00)
Language:

IDEFIX/ARIANE 42P - Orbit

View from above orbital plane
View from above orbital plane
View from above satellite
View from above satellite

Ground track
Ground track

The orbit data is extracted from the following two-line orbital elements,

1 27422U 02021B   17142.95700952 -.00000002 +00000-0 +15135-4 0  9996
2 27422 098.2296 144.6284 0011338 316.2804 043.7481 14.29253433784961
Epoch (UTC): 22 May 2017 22:58:05
Eccentricity: 0.0011338
inclination: 98.2296°
perigee height: 786 km
apogee height: 802 km
right ascension of ascending node: 144.6284°
argument of perigee: 316.2804°
revolutions per day: 14.29253433
mean anomaly at epoch: 43.7481°
orbit number at epoch: 78496

The dashed part of the orbit path shows where the satellite is in the earth's shadow,  

DLR